CW2840 Weather Reports


time (UTC)temp
C
wind
direction
speed
KPH
gust
KPH
rain 1hr
cm
rain 24hr
cm
rain mn
cm
humidity
%
barometer
mb
20260905164602 30 209 1.6 4.8 0.00 0.36 0.00 67 1014.4
20260905163756 31 209 1.6 8.0 0.00 0.36 0.00 65 1014.5
20260905161601 31 165 3.2 8.0 0.00 0.36 0.00 68 1014.5
20260905160813 30 172 3.2 4.8 0.00 0.36 0.00 72 1014.6
20260905154602 30 172 0.0 4.8 0.00 0.36 0.00 73 1014.6
20260905153102 30 172 4.8 8.0 0.00 0.36 0.00 73 1014.7
20260905151603 29 172 3.2 8.0 0.00 0.36 0.00 76 1014.5
20260905144601 28 103 1.6 8.0 0.00 0.36 0.00 81 1014.5
20260905143103 28 103 3.2 8.0 0.00 0.36 0.00 83 1014.4
20260905141602 27 109 1.6 4.8 0.00 0.36 0.00 86 1014.4
20260905134602 26 109 0.0 8.0 0.00 0.36 0.00 90 1014.4
20260905133102 25 109 3.2 4.8 0.00 0.36 0.00 91 1014.3
20260905131603 25 109 1.6 8.0 0.00 0.36 0.00 91 1014.3
20260905124602 25 148 0.0 0.0 0.00 0.36 0.00 91 1013.9
20260905123102 24 148 0.0 0.0 0.00 0.36 0.00 91 1013.8
20260905121602 24 148 0.0 0.0 0.00 0.36 0.00 91 1013.7
20260905114602 24 148 0.0 0.0 0.00 0.36 0.00 91 1013.4
20260905113102 24 148 0.0 0.0 0.00 0.36 0.00 91 1013.2
20260905111602 24 148 0.0 4.8 0.00 0.36 0.00 90 1013.1
20260905104603 24 148 0.0 0.0 0.00 0.36 0.00 90 1012.8
20260905103102 24 148 0.0 0.0 0.00 0.36 0.00 90 1012.8
20260905101602 25 148 0.0 0.0 0.00 0.36 0.00 90 1012.8
20260905095311 25 148 0.0 3.2 0.00 0.36 0.00 90 1012.8
20260905093753 25 148 0.0 0.0 0.00 0.36 0.00 90 1012.7
20260905091602 25 148 0.0 0.0 0.00 0.36 0.00 90 1012.8
20260905084602 25 148 0.0 0.0 0.00 0.36 0.00 89 1012.7
20260905083103 25 148 0.0 3.2 0.00 0.36 0.00 89 1012.7
20260905081603 25 148 1.6 3.2 0.00 0.38 0.00 89 1012.7
20260905080809 25 148 0.0 0.0 0.00 0.38 0.00 89 1012.6
20260905075255 25 148 0.0 3.2 0.00 0.41 0.00 89 1012.8
20260905073103 25 148 0.0 3.2 0.00 0.43 0.00 88 1012.9
20260905071602 25 148 0.0 0.0 0.00 0.43 0.00 88 1012.9
20260905071512 25 148 0.0 0.0 0.00 0.43 0.00 88 1013.1
20260905065948 25 148 0.0 0.0 0.00 0.43 0.00 87 1013.3
20260905063102 25 148 0.0 3.2 0.00 0.43 0.00 87 1013.3
20260905061603 25 148 0.0 0.0 0.00 0.43 0.00 87 1013.4
20260905054602 26 148 0.0 0.0 0.00 0.43 0.00 86 1013.3
20260905053102 26 148 0.0 0.0 0.00 0.43 0.00 86 1013.5
20260905051602 26 148 0.0 4.8 0.00 0.43 0.00 87 1013.4
20260905044602 26 148 0.0 0.0 0.00 0.43 0.43 87 1013.3
20260905043102 26 148 0.0 3.2 0.00 0.43 0.43 86 1013.3
20260905041602 26 148 0.0 3.2 0.00 0.43 0.43 86 1013.5
20260905034602 26 148 0.0 3.2 0.00 0.43 0.43 84 1013.5
20260905033102 26 148 0.0 0.0 0.00 0.43 0.43 83 1013.6
20260905031602 27 148 0.0 3.2 0.00 0.43 0.43 82 1013.5
20260905024602 27 148 0.0 0.0 0.00 0.43 0.43 82 1013.6
20260905023049 27 148 0.0 3.2 0.00 0.43 0.43 82 1013.4
20260905021545 27 148 0.0 8.0 0.00 0.43 0.43 82 1013.4
20260905020732 27 145 0.0 3.2 0.00 0.43 0.43 81 1013.2
20260905014541 27 145 0.0 3.2 0.00 0.43 0.43 81 1012.9
20260905013038 27 145 0.0 0.0 0.00 0.43 0.43 80 1012.7
20260905012234 28 145 0.0 0.0 0.00 0.43 0.43 79 1012.5
20260905010035 28 145 0.0 0.0 0.00 0.43 0.43 76 1012.5
20260905005225 28 145 0.0 0.0 0.00 0.43 0.43 75 1012.4
20260905003032 29 145 0.0 3.2 0.00 0.43 0.43 73 1012.2
20260905001532 29 145 0.0 3.2 0.00 0.43 0.43 72 1012.3
20260905000031 30 145 0.0 11.3 0.00 0.43 0.43 70 1012.2
20260904234531 30 148 4.8 11.3 0.00 0.43 0.43 69 1012.1
20260904233032 30 149 4.8 11.3 0.00 0.43 0.43 68 1012.2
20260904232921 30 164 4.8 11.3 0.00 0.43 0.43 69 1012.4
20260904230029 30 161 4.8 17.7 0.00 0.43 0.43 70 1012.4
20260904224528 30 144 6.4 22.5 0.00 0.43 0.43 71 1012.4
20260904223025 30 190 12.9 25.7 0.00 0.43 0.43 69 1012.5
20260904221525 30 240 0.0 8.0 0.00 0.43 0.43 68 1012.3
20260904220022 31 243 0.0 3.2 0.00 0.43 0.43 66 1012.5
20260904214519 31 243 0.0 8.0 0.00 0.43 0.43 66 1012.4
20260904213017 31 244 1.6 4.8 0.00 0.43 0.43 68 1012.5
20260904211515 31 245 0.0 14.5 0.00 0.43 0.43 64 1012.6
20260904210714 31 149 4.8 17.7 0.00 0.43 0.43 66 1012.8
20260904204511 31 159 1.6 11.3 0.00 0.46 0.43 65 1013.1
20260904203009 32 183 6.4 11.3 0.00 0.48 0.43 66 1013.4
20260904201507 31 200 4.8 8.0 0.00 0.51 0.43 71 1013.6
20260904200005 30 221 1.6 11.3 0.00 0.56 0.43 71 1013.6
20260904194503 30 180 3.2 11.3 0.00 0.66 0.43 73 1013.7
20260904193003 29 265 3.2 14.5 0.13 0.76 0.43 76 1013.9
20260904192207 28 269 8.0 14.5 0.36 0.84 0.43 80 1014.1
20260904190002 27 175 4.8 11.3 0.36 0.56 0.43 85 1014.3
20260904184503 25 161 0.0 11.3 0.36 0.61 0.43 87 1014.8
20260904183003 25 228 1.6 14.5 0.23 0.61 0.30 80 1015.5
20260904181503 29 241 4.8 25.7 0.00 0.64 0.08 65 1015.2
20260904180004 30 228 3.2 14.5 0.00 0.74 0.08 71 1015.0
20260904174502 31 164 4.8 14.5 0.00 0.86 0.08 72 1014.9
20260904173003 30 133 1.6 8.0 0.00 0.97 0.08 76 1014.9